This is the latest recevied weather packets stored in our database for station/object SR9WXJ. If no packets are shown the sender has not sent any weather packets the latest 10 day(s).
| Time | Temp. | Humidity | Pressure | Rain* | Wind** | Luminosity | Snow |
|---|---|---|---|---|---|---|---|
| 1777555493 | 10° C | 100% | 813 hPa | - | - | - | - |
| 1777555183 | 10° C | 100% | 813 hPa | - | - | - | - |
| 1777554872 | 10° C | 100% | 813.8 hPa | - | - | - | - |
| 1777554570 | 10.56° C | 100% | 814.8 hPa | - | - | - | - |
| 1777553948 | 9.44° C | 100% | 814.8 hPa | - | - | - | - |
| 1777553637 | 9.44° C | 100% | 815.5 hPa | - | - | - | - |
| 1777553025 | 9.44° C | 100% | 816.1 hPa | - | - | - | - |
| 1777552714 | 9.44° C | 100% | 816.1 hPa | - | - | - | - |
| 1777552403 | 9.44° C | 100% | 816.1 hPa | - | - | - | - |
| 1777552092 | 10° C | 100% | 816.7 hPa | - | - | - | - |
| 1777551781 | 8.89° C | 100% | 816.7 hPa | - | - | - | - |
| 1777551481 | 8.89° C | 100% | 816.7 hPa | - | - | - | - |
| 1777551170 | 8.89° C | 100% | 817.3 hPa | - | - | - | - |
| 1777550859 | 10° C | 100% | 817.3 hPa | - | - | - | - |
| 1777550237 | 9.44° C | 100% | 819.9 hPa | - | - | - | - |
| 1777549937 | 8.89° C | 100% | 819.9 hPa | - | - | - | - |
| 1777549626 | 8.89° C | 100% | 819.9 hPa | - | - | - | - |
| 1777549315 | 8.89° C | 100% | 820.8 hPa | - | - | - | - |
| 1777549004 | 8.33° C | 100% | 820.8 hPa | - | - | - | - |
| 1777548694 | 8.33° C | 100% | 820.8 hPa | - | - | - | - |
| 1777548083 | 8.89° C | 100% | 822.5 hPa | - | - | - | - |
| 1777547772 | 7.78° C | 100% | 822.5 hPa | - | - | - | - |
| 1777547461 | 8.33° C | 100% | 827.2 hPa | - | - | - | - |
| 1777547150 | 8.33° C | 100% | 827.2 hPa | - | - | - | - |
| 1777546839 | 7.78° C | 100% | 827.2 hPa | - | - | - | - |
* Rain since midnight (hover to see other rain measurements)
** Current wind speed in m/s (hover to see current wind gust speed)